Location: Burzi?i
(45.0869°N, 16.0577°E)
Time: 11:37:37
(UTC+00:00)

SL-4 R/B - Pass Details

Date: 29 October 2020
Orbit: 427 x 665 km, 51.6° (Epoch: 27 November)

Event Time Altitude Azimuth Distance (km) Brightness Sun altitude
Rises 17:30:26 0° 299° (WNW) 2,450 6.4 -18.7°
Reaches altitude 10° 17:32:34 10° 306° (NW) 1,603 5.2 -19.0°
Maximum altitude 17:36:03 46° 20° (NNE) 657 2.2 -19.6°
Enters shadow 17:36:10 45° 27° (NNE) 660 2.2 -19.7°
